Weather History for KBGR - August, 2012

Change the Weather History Date:

Thursday, August 2, 2012

  Actual Average Record
Temperature  
Mean Temperature 73 °F 69 °F  
Max Temperature 79 °F 80 °F 102 °F (1975)
Min Temperature 66 °F 58 °F 40 °F (1941)
Degree Days  
Heating Degree Days 0 1  
Month to date heating degree days 0 2  
Since 1 June heating degree days 121 132  
Since 1 July heating degree days 0 25  
Cooling Degree Days 8 4  
Month to date cooling degree days 14 8  
Year to date cooling degree days 242 198  
Since 1 June cooling degree days 229 192  
Growing Degree Days 22 (Base 50)    
Moisture  
Dew Point 66 °F    
Average Humidity 86    
Maximum Humidity 100    
Minimum Humidity 71    
Precipitation  
Precipitation T in 0.11 in 1.86 in (1971)
Month to date precipitation 0.55 0.22  
Year to date precipitation 22.25 23.49  
Snow  
Snow 0.00 in 0.00 in 0.00 in (2002)
Month to date snowfall 0.0 0.0  
Since 1 June snowfall 0.0 0.0  
Since 1 July snowfall 0.0 0.0  
Snow Depth 0.00 in    
Sea Level Pressure  
Sea Level Pressure 29.86 in    
Wind  
Wind Speed 6 mph (South)    
Max Wind Speed 17 mph    
Max Gust Speed 22 mph    
Visibility 7 miles    
Events      
T = Trace of Precipitation, MM = Missing Value Source: NWS Daily Summary

Daily Weather History Graph

Daily Weather History Graph

Search for Another Location

Airport or City:

Trip Planner

Search our weather history database for the weather conditions in past years. The results will help you decide how hot, cold, wet, or windy it might be!

Date:

Astronomy

Aug. 02, 2012 Rise Set
Actual Time 5:22 AM EDT 7:59 PM EDT
Civil Twilight 4:49 AM EDT 8:32 PM EDT
Nautical Twilight 4:07 AM EDT 9:14 PM EDT
Astronomical Twilight 3:19 AM EDT 10:02 PM EDT
Moon 7:57 PM EDT (8/2) 5:59 AM EDT (8/2)
Length of Visible Light 15h 43m
Length of Day
14h 36m
Full, 100% of the Moon is Illuminated
Aug 2
Full
Aug 9
Last Quarter
Aug 17
New
Aug 24
First Quarter
Aug 31
Full

Hourly Weather History & Observations

Time (EDT) Temp. Dew Point Humidity Pressure Visibility Wind Dir Wind Speed Gust Speed Precip Events Conditions
12:19 AM 66.2 °F 64.4 °F 94% 29.86 in 10.0 mi SSE 4.6 mph - N/A   Overcast
12:49 AM 66.2 °F 64.4 °F 94% 29.87 in 10.0 mi South 5.8 mph - N/A   Overcast
12:53 AM 66.2 °F 64.4 °F 94% 29.87 in 10.0 mi South 3.5 mph - N/A   Overcast
1:53 AM 66.9 °F 64.9 °F 93% 29.85 in 8.0 mi South 4.6 mph - N/A   Overcast
2:53 AM 66.9 °F 66.0 °F 97% 29.85 in 7.0 mi South 5.8 mph - N/A   Overcast
3:53 AM 66.9 °F 66.0 °F 97% 29.83 in 3.0 mi SSE 6.9 mph - N/A   Overcast
4:53 AM 66.0 °F 66.0 °F 100% 29.85 in 2.0 mi South 3.5 mph - 0.00 in   Light Drizzle
5:32 AM 66.2 °F 64.4 °F 94% 29.86 in 1.5 mi SSW 3.5 mph - 0.00 in   Overcast
5:53 AM 66.0 °F 64.9 °F 96% 29.85 in 1.5 mi South 3.5 mph - 0.00 in   Overcast
6:21 AM 66.2 °F 66.2 °F 100% 29.86 in 0.8 mi South 3.5 mph - 0.00 in   Light Drizzle
6:53 AM 66.0 °F 66.0 °F 100% 29.85 in 0.8 mi South 5.8 mph - 0.00 in   Light Drizzle
7:53 AM 66.0 °F 66.0 °F 100% 29.86 in 1.0 mi South 4.6 mph - 0.00 in   Light Drizzle
8:20 AM 66.2 °F 66.2 °F 100% 29.87 in 2.0 mi South 5.8 mph - 0.00 in   Overcast
8:40 AM 66.2 °F 66.2 °F 100% 29.87 in 3.0 mi SSW 3.5 mph - 0.00 in   Overcast
8:53 AM 68.0 °F 66.0 °F 93% 29.86 in 4.0 mi Variable 3.5 mph - 0.00 in   Overcast
9:24 AM 69.8 °F 66.2 °F 88% 29.87 in 6.0 mi SSW 3.5 mph - N/A   Overcast
9:53 AM 70.0 °F 66.0 °F 87% 29.87 in 6.0 mi South 4.6 mph - N/A   Overcast
10:53 AM 71.1 °F 66.9 °F 87% 29.88 in 8.0 mi SSE 6.9 mph - N/A   Overcast
11:53 AM 72.0 °F 66.9 °F 84% 29.87 in 10.0 mi South 5.8 mph - N/A   Overcast
12:53 PM 73.9 °F 66.9 °F 79% 29.86 in 10.0 mi South 8.1 mph - N/A   Overcast
1:25 PM 75.2 °F 68.0 °F 78% 29.86 in 10.0 mi South 8.1 mph - N/A   Mostly Cloudy
1:53 PM 75.2 °F 68.0 °F 78% 29.85 in 10.0 mi South 10.4 mph - N/A   Mostly Cloudy
2:53 PM 75.9 °F 68.0 °F 76% 29.83 in 10.0 mi SSW 6.9 mph - N/A   Mostly Cloudy
3:53 PM 77.0 °F 68.0 °F 74% 29.82 in 10.0 mi SSW 8.1 mph - N/A   Scattered Clouds
4:53 PM 78.1 °F 68.0 °F 71% 29.81 in 10.0 mi SSE 13.8 mph - N/A   Scattered Clouds
5:53 PM 75.9 °F 68.0 °F 76% 29.83 in 10.0 mi South 11.5 mph - N/A   Scattered Clouds
6:53 PM 73.9 °F 66.9 °F 79% 29.84 in 10.0 mi South 6.9 mph - N/A   Partly Cloudy
7:53 PM 70.0 °F 66.0 °F 87% 29.84 in 10.0 mi South 10.4 mph - N/A   Scattered Clouds
8:31 PM 68.0 °F 66.2 °F 94% 29.87 in 10.0 mi South 13.8 mph - N/A   Mostly Cloudy
8:53 PM 66.9 °F 66.0 °F 97% 29.88 in 10.0 mi South 15.0 mph 21.9 mph N/A   Overcast
9:23 PM 66.2 °F 66.2 °F 100% 29.89 in 8.0 mi SSW 8.1 mph - N/A   Overcast
9:53 PM 66.9 °F 66.0 °F 97% 29.88 in 8.0 mi South 6.9 mph - N/A   Overcast
10:53 PM 66.0 °F 66.0 °F 100% 29.87 in 7.0 mi South 8.1 mph - N/A   Overcast
11:53 PM 66.0 °F 66.0 °F 100% 29.87 in 7.0 mi South 6.9 mph - N/A   Overcast